C/2019 K7 ( Smith )

Japanese version
Home page
Updated on July 4, 2019

---------------------------------------------------------------------

* Profile

Discovery Date May 30, 2019
Magnitude 17.7 mag
Discoverer Ken W. Smith (Asteroid Terrestrial-Impact Last Alert System (ATLAS) search program)

* Orbital Elements

Epoch 2020 May 31.0 TT = JDT 2459000.5                                          
T 2020 June 17.20481 TT                                 MPCLINUX                
q   4.4653924            (2000.0)            P               Q                  
z  -0.0027161      Peri.   27.50830     +0.45905391     -0.44843291             
 +/-0.0016262      Node   307.89933     -0.88195288     -0.12614975             
e   1.0121284      Incl.  103.61194     +0.10690473     +0.88486957             
From 142 observations 2019 May 30-July 1, mean residual 0".4.                   

* Finding Charts

* Magnitudes Graph

        m1 = 6.0 + 5 log d + 10.0 log r

---------------------------------------------------------------------

The orbital elements are published on M.P.E.C. 2019-N12.
The charts are made with StellaNavigator Ver.10 (AstroArts).
The magnitudes graphs are made with Comet for Windows.

---------------------------------------------------------------------

Copyright(C) Seiichi Yoshida (comet@aerith.net). All rights reserved.